GW3531 Weather Reports


Display with metric or nautical units.
time (UTC)temp
F
wind
direction
speed
MPH
gust
MPH
rain 1hr
in
rain 24hr
in
rain mn
in
humidity
%
barometer
mb
20260504020127 58 222 5.0 9.0 0.00 0.00 0.00 36 1012.7
20260504014604 58 178 3.0 6.0 0.00 0.00 0.00 37 1012.6
20260504013116 58 192 3.0 5.0 0.00 0.00 0.00 36 1012.4
20260504011553 58 213 5.0 8.0 0.00 0.00 0.00 40 1012.3
20260504010054 58 195 2.0 4.0 0.00 0.00 0.00 40 1012.1
20260504004623 58 236 3.0 5.0 0.00 0.00 0.00 38 1012.0
20260504003059 59 243 2.0 6.0 0.00 0.00 0.00 35 1011.8
20260504001621 59 269 2.0 6.0 0.00 0.00 0.00 34 1011.5
20260504000104 59 301 2.0 7.0 0.00 0.00 0.00 32 1011.3
20260503234604 59 336 4.0 9.0 0.00 0.00 0.00 29 1011.2
20260503233101 60 331 4.0 14.0 0.00 0.00 0.00 32 1011.0
20260503231556 60 282 6.0 14.0 0.00 0.00 0.00 30 1011.0
20260503230112 60 313 7.0 16.0 0.00 0.00 0.00 28 1010.9
20260503224604 60 312 6.0 16.0 0.00 0.00 0.00 29 1010.8
20260503223057 59 279 8.0 19.0 0.00 0.00 0.00 28 1010.8
20260503221603 59 317 10.0 23.0 0.00 0.00 0.00 28 1010.7
20260503220058 59 316 8.0 20.0 0.00 0.00 0.00 29 1010.9
20260503214602 59 310 11.0 19.0 0.00 0.01 0.00 29 1010.8
20260503213053 58 303 11.0 26.0 0.00 0.01 0.00 31 1010.7
20260503211556 58 310 11.0 18.0 0.00 0.01 0.00 33 1010.8
20260503210053 57 295 14.0 23.0 0.00 0.01 0.00 30 1010.6
20260503204558 57 316 13.0 23.0 0.00 0.01 0.00 33 1010.4
20260503203115 57 312 9.0 25.0 0.00 0.01 0.00 31 1010.8
20260503201604 57 304 10.0 24.0 0.00 0.01 0.00 32 1010.7
20260503200056 56 281 8.0 24.0 0.00 0.01 0.00 32 1011.1
20260503194558 56 316 14.0 28.0 0.00 0.01 0.00 34 1011.1
20260503193056 55 296 17.0 28.0 0.00 0.01 0.00 33 1011.1
20260503191556 55 297 10.0 22.0 0.00 0.01 0.00 36 1011.2
20260503190110 54 265 9.0 21.0 0.00 0.01 0.00 36 1011.5
20260503184604 54 297 10.0 24.0 0.00 0.01 0.00 37 1011.6
20260503183101 53 274 10.0 27.0 0.00 0.01 0.00 39 1011.6
20260503181605 52 306 11.0 24.0 0.00 0.01 0.00 41 1011.5
20260503180055 52 257 17.0 23.0 0.00 0.01 0.00 42 1011.7
20260503174603 51 260 12.0 21.0 0.00 0.01 0.00 42 1011.8
20260503173105 52 308 12.0 25.0 0.00 0.01 0.00 44 1012.0
20260503171601 51 345 14.0 25.0 0.00 0.01 0.00 45 1011.6
20260503100106 46 355 13.0 21.0 0.00 0.01 0.00 56 1011.0
20260503081601 48 22 15.0 24.0 0.00 0.01 0.00 56 1010.4
20260503071559 49 34 11.0 16.0 0.00 0.01 0.00 56 1010.5
20260503060119 50 21 14.0 17.0 0.00 0.02 0.00 55 1010.7
20260503054627 51 10 15.0 19.0 0.00 0.02 0.00 55 1010.7
20260503053056 51 32 15.0 19.0 0.00 0.02 0.00 51 1010.7
20260503051601 51 11 15.0 18.0 0.00 0.02 0.00 50 1011.2
20260503050057 52 12 14.0 19.0 0.00 0.02 0.00 47 1011.2
20260503044554 52 360 11.0 15.0 0.00 0.02 0.00 47 1011.2
20260503043052 52 6 13.0 19.0 0.00 0.02 0.00 47 1011.3
20260503041556 53 4 13.0 19.0 0.00 0.02 0.00 49 1011.5
20260503040100 53 15 11.0 15.0 0.00 0.02 0.00 45 1011.5
20260503034555 53 355 13.0 17.0 0.00 0.02 0.02 43 1011.4
20260503033110 54 360 14.0 18.0 0.00 0.02 0.02 46 1011.3
20260503031555 54 347 12.0 19.0 0.00 0.02 0.02 49 1011.2
20260503030053 54 342 14.0 17.0 0.00 0.02 0.02 41 1011.4
20260503024552 54 360 13.0 18.0 0.00 0.02 0.02 41 1011.3
20260503023057 55 13 12.0 17.0 0.00 0.02 0.02 45 1011.2
20260503021556 55 347 13.0 18.0 0.00 0.02 0.02 45 1011.3